FW3814 Weather Reports


Display with metric or nautical units.
time (UTC)temp
F
wind
direction
speed
MPH
gust
MPH
rain 1hr
in
rain 24hr
in
rain mn
in
humidity
%
barometer
mb
20221001220013 55 314 0.0 2.0 0.00 0.00 0.00 77 1019.2
20221001215010 55 314 3.0 4.0 0.00 0.00 0.00 77 1019.5
20221001214509 56 314 4.0 4.0 0.00 0.00 0.00 77 1019.3
20221001214010 56 314 4.0 4.0 0.00 0.00 0.00 77 1019.1
20221001213509 56 314 4.0 4.0 0.00 0.00 0.00 77 1018.9
20221001213010 56 314 4.0 4.0 0.00 0.00 0.00 76 1019.0
20221001212509 56 314 4.0 4.0 0.00 0.00 0.00 76 1019.0
20221001212010 56 314 4.0 4.0 0.00 0.00 0.00 76 1019.1
20221001211509 56 314 4.0 4.0 0.00 0.00 0.00 76 1019.0
20221001211010 56 314 4.0 5.0 0.00 0.00 0.00 75 1019.3
20221001210010 56 314 4.0 6.0 0.00 0.00 0.00 75 1019.2
20221001205010 56 314 5.0 6.0 0.00 0.00 0.00 75 1019.2
20221001204509 57 314 6.0 7.0 0.00 0.00 0.00 75 1019.3
20221001204010 57 314 6.0 7.0 0.00 0.00 0.00 75 1019.2
20221001203509 57 314 5.0 6.0 0.00 0.00 0.00 75 1019.2
20221001203010 57 314 5.0 6.0 0.00 0.00 0.00 74 1019.1
20221001202509 56 295 5.0 7.0 0.00 0.00 0.00 74 1019.2
20221001202010 56 264 5.0 7.0 0.00 0.00 0.00 73 1019.1
20221001201509 56 248 3.0 5.0 0.00 0.00 0.00 73 1019.1
20221001201010 57 248 2.0 3.0 0.00 0.00 0.00 73 1019.3
20221001200509 58 248 3.0 5.0 0.00 0.00 0.00 73 1019.3
20221001200010 58 248 4.0 5.0 0.00 0.00 0.00 73 1018.9
20221001195509 58 248 4.0 5.0 0.00 0.00 0.00 73 1018.6
20221001195010 58 248 5.0 5.0 0.00 0.00 0.00 73 1018.6
20221001194009 58 248 3.0 4.0 0.00 0.00 0.00 72 1018.2
20221001193509 58 248 3.0 4.0 0.00 0.00 0.00 72 1018.2
20221001193009 58 248 3.0 4.0 0.00 0.00 0.00 72 1018.4
20221001192510 58 248 3.0 4.0 0.00 0.00 0.00 72 1018.3
20221001192009 58 248 2.0 4.0 0.00 0.00 0.00 71 1018.2
20221001191510 58 248 2.0 3.0 0.00 0.00 0.00 71 1018.2
20221001191009 58 248 3.0 3.0 0.00 0.00 0.00 71 1018.1
20221001190009 58 248 3.0 3.0 0.00 0.00 0.00 70 1018.1
20221001185510 58 248 3.0 4.0 0.00 0.00 0.00 70 1018.4
20221001185010 58 248 2.0 4.0 0.00 0.00 0.00 70 1018.3
20221001184509 58 248 1.0 2.0 0.00 0.00 0.00 70 1018.4
20221001184010 58 248 1.0 2.0 0.00 0.00 0.00 70 1018.2
20221001183509 58 248 2.0 2.0 0.00 0.00 0.00 69 1017.9
20221001182509 59 248 1.0 2.0 0.00 0.00 0.00 68 1018.1
20221001181509 59 248 1.0 2.0 0.00 0.00 0.00 68 1017.8
20221001181010 59 248 1.0 2.0 0.00 0.00 0.00 67 1018.0
20221001180010 59 248 2.0 2.0 0.00 0.00 0.00 67 1017.9
20221001175509 59 248 1.0 2.0 0.00 0.00 0.00 66 1017.9
20221001175009 60 248 1.0 2.0 0.00 0.00 0.00 66 1017.9
20221001174010 60 248 0.0 2.0 0.00 0.00 0.00 65 1017.9
20221001173509 60 248 1.0 2.0 0.00 0.00 0.00 65 1017.7
20221001173010 60 248 1.0 2.0 0.00 0.00 0.00 65 1017.7
20221001172509 61 248 1.0 2.0 0.00 0.00 0.00 64 1017.4
20221001172010 61 248 1.0 3.0 0.00 0.00 0.00 64 1017.4
20221001171509 62 248 3.0 5.0 0.00 0.00 0.00 63 1017.4
20221001171010 62 248 5.0 5.0 0.00 0.00 0.00 63 1017.3
20221001170509 63 248 5.0 5.0 0.00 0.00 0.00 63 1017.1
20221001170009 63 248 4.0 5.0 0.00 0.00 0.00 63 1017.1
20221001165509 63 248 4.0 5.0 0.00 0.00 0.00 62 1016.7
20221001165009 64 248 4.0 5.0 0.00 0.00 0.00 59 1016.8
20221001164509 64 248 5.0 5.0 0.00 0.00 0.00 59 1017.0
20221001163509 65 248 4.0 7.0 0.00 0.00 0.00 58 1017.0
20221001163009 66 248 5.0 7.0 0.00 0.01 0.00 58 1016.8
20221001162509 66 246 5.0 7.0 0.00 0.01 0.00 58 1017.0
20221001161509 67 231 6.0 9.0 0.00 0.01 0.00 58 1016.1
20221001161010 67 248 7.0 9.0 0.00 0.01 0.00 58 1016.7
20221001160010 67 249 7.0 10.0 0.00 0.04 0.00 58 1016.7
20221001155509 67 248 7.0 10.0 0.00 0.04 0.00 58 1016.8
20221001155010 68 248 5.0 8.0 0.00 0.05 0.00 59 1017.1
20221001154509 68 248 4.0 8.0 0.00 0.05 0.00 59 1016.7
20221001154010 68 248 3.0 8.0 0.00 0.05 0.00 59 1016.7
20221001153509 68 248 3.0 5.0 0.00 0.05 0.00 59 1016.8
20221001153010 68 248 4.0 7.0 0.00 0.05 0.00 57 1016.7
20221001152509 68 248 4.0 7.0 0.00 0.05 0.00 57 1016.6
20221001152010 69 248 3.0 4.0 0.00 0.05 0.00 57 1016.7
20221001151010 69 248 5.0 6.0 0.00 0.05 0.00 58 1017.1
20221001150509 69 243 5.0 7.0 0.00 0.05 0.00 59 1017.0
20221001150010 69 243 4.0 7.0 0.00 0.05 0.00 60 1017.0
20221001145509 69 241 6.0 11.0 0.00 0.05 0.00 60 1016.7
20221001145009 69 240 7.0 11.0 0.00 0.05 0.00 60 1017.0
20221001144510 69 245 5.0 11.0 0.00 0.05 0.00 61 1016.9
20221001144009 68 229 4.0 6.0 0.00 0.05 0.00 62 1016.8
20221001143509 67 218 3.0 5.0 0.00 0.05 0.00 63 1016.9
20221001143010 67 248 2.0 4.0 0.00 0.05 0.00 63 1016.7
20221001142009 65 248 3.0 6.0 0.00 0.05 0.00 63 1017.0
20221001141509 66 248 4.0 6.0 0.00 0.05 0.00 63 1017.0
20221001140509 65 248 4.0 4.0 0.00 0.05 0.00 64 1017.0
20221001140009 65 248 3.0 4.0 0.00 0.05 0.00 64 1017.1
20221001135509 65 248 3.0 5.0 0.00 0.05 0.00 64 1017.1
20221001135009 64 248 4.0 5.0 0.00 0.05 0.00 63 1017.3
20221001134509 65 248 5.0 6.0 0.00 0.05 0.00 63 1017.1
20221001134009 65 248 6.0 8.0 0.00 0.05 0.00 63 1017.3
20221001133510 66 245 7.0 8.0 0.00 0.05 0.00 63 1017.1
20221001133009 66 237 7.0 8.0 0.00 0.05 0.00 64 1017.0
20221001132509 67 218 7.0 8.0 0.00 0.05 0.00 64 1017.0
20221001132009 67 215 5.0 8.0 0.00 0.05 0.00 64 1017.2
20221001131509 67 227 3.0 6.0 0.00 0.05 0.00 65 1017.0
20221001131009 67 211 4.0 6.0 0.00 0.05 0.00 66 1017.1
20221001130009 66 203 4.0 6.0 0.00 0.05 0.00 67 1017.3
20221001125510 66 182 5.0 6.0 0.00 0.05 0.00 69 1017.0
20221001125009 66 172 6.0 7.0 0.00 0.05 0.00 70 1017.2
20221001124509 65 196 6.0 8.0 0.00 0.05 0.00 70 1017.2
20221001123509 64 249 6.0 8.0 0.00 0.05 0.00 73 1017.4
20221001123009 64 257 3.0 5.0 0.00 0.05 0.00 74 1017.6
20221001122509 63 270 2.0 3.0 0.00 0.05 0.00 77 1017.6
20221001121509 62 270 2.0 3.0 0.00 0.05 0.00 78 1017.8
20221001121009 61 270 2.0 3.0 0.00 0.05 0.00 79 1018.1
20221001120509 61 270 2.0 3.0 0.00 0.05 0.00 79 1018.2
20221001120009 61 270 2.0 3.0 0.00 0.05 0.00 79 1018.1
20221001115009 61 270 2.0 3.0 0.00 0.05 0.00 79 1018.3
20221001114009 61 270 3.0 4.0 0.00 0.05 0.00 80 1018.1
20221001113008 61 270 3.0 4.0 0.00 0.05 0.00 80 1018.1
20221001112009 61 270 3.0 4.0 0.00 0.05 0.00 80 1018.2
20221001111509 61 269 4.0 7.0 0.00 0.05 0.00 80 1018.2
20221001111009 61 257 5.0 7.0 0.00 0.05 0.00 81 1018.3
20221001110509 61 256 4.0 5.0 0.00 0.05 0.00 81 1018.2
20221001110009 61 270 3.0 4.0 0.00 0.05 0.00 81 1018.3
20221001105509 60 269 3.0 4.0 0.00 0.05 0.00 81 1018.2
20221001105010 61 264 4.0 7.0 0.00 0.05 0.00 81 1018.3
20221001104509 61 257 6.0 11.0 0.00 0.05 0.00 82 1018.7
20221001104008 61 252 5.0 11.0 0.00 0.05 0.00 83 1018.2
20221001103009 60 264 4.0 5.0 0.00 0.05 0.00 83 1018.4
20221001102509 60 258 5.0 6.0 0.00 0.05 0.00 83 1018.3
20221001101509 60 270 5.0 7.0 0.00 0.05 0.00 84 1018.2
20221001101009 60 270 3.0 7.0 0.00 0.06 0.00 84 1018.3
20221001100509 60 266 3.0 6.0 0.00 0.07 0.00 85 1018.6
20221001100009 60 234 5.0 6.0 0.00 0.08 0.00 85 1018.1
20221001095509 60 231 5.0 8.0 0.00 0.09 0.00 85 1018.2
20221001094509 59 251 5.0 6.0 0.00 0.11 0.00 87 1018.3
20221001094008 59 260 4.0 6.0 0.00 0.11 0.00 87 1018.3
20221001093509 59 270 3.0 4.0 0.00 0.12 0.00 88 1018.3
20221001093009 58 271 3.0 5.0 0.00 0.12 0.00 88 1018.3
20221001092509 58 293 4.0 5.0 0.00 0.12 0.00 88 1018.4
20221001092009 58 313 4.0 4.0 0.00 0.13 0.00 89 1018.5
20221001091522 58 303 3.0 4.0 0.00 0.13 0.00 89 1018.5
20221001090509 57 328 2.0 3.0 0.00 0.13 0.00 90 1018.5
20221001044508 51 351 3.0 4.0 0.00 0.53 0.00 91 1016.7
20221001044009 51 354 2.0 4.0 0.00 0.56 0.00 92 1016.9
20221001043508 51 1 2.0 3.0 0.00 0.57 0.00 92 1017.0
20221001042508 51 6 3.0 4.0 0.00 0.63 0.00 92 1016.6
20221001042009 51 10 3.0 4.0 0.00 0.65 0.00 92 1016.4
20221001041509 51 9 3.0 4.0 0.00 0.67 0.00 92 1016.3
20221001041009 51 5 3.0 4.0 0.00 0.70 0.00 92 1016.5
20221001040508 52 1 2.0 3.0 0.00 0.71 0.00 92 1016.4
20221001040009 52 1 3.0 4.0 0.00 0.74 0.00 92 1016.5
20221001035509 52 1 4.0 4.0 0.00 0.74 0.00 92 1016.6
20221001035008 52 1 4.0 4.0 0.00 0.77 0.00 92 1016.5
20221001034509 52 354 4.0 4.0 0.00 0.79 0.00 92 1016.6
20221001032509 52 346 4.0 5.0 0.00 0.85 0.00 92 1016.8
20221001032009 52 346 4.0 4.0 0.00 0.90 0.00 92 1016.7
20221001031009 52 1 4.0 5.0 0.00 0.92 0.00 92 1016.9
20221001030509 52 357 4.0 4.0 0.00 0.92 0.00 92 1016.7
20221001025509 52 1 3.0 4.0 0.00 0.92 0.00 92 1016.7
20221001025008 52 1 3.0 4.0 0.00 0.92 0.00 92 1016.8
20221001024508 52 354 3.0 4.0 0.00 0.93 0.00 92 1016.7
20221001023509 52 340 3.0 4.0 0.00 0.93 0.00 92 1016.7
20221001023009 52 358 3.0 4.0 0.00 0.97 0.00 92 1016.7
20221001022508 52 1 4.0 4.0 0.00 1.04 0.00 92 1016.7
20221001022009 52 1 3.0 4.0 0.00 1.09 0.00 92 1016.8
20221001021509 52 357 2.0 4.0 0.00 1.09 0.00 92 1016.8
20221001021008 52 358 3.0 4.0 0.00 1.09 0.00 92 1016.9
20221001020509 52 1 3.0 4.0 0.00 1.09 0.00 92 1016.8
20221001020008 52 1 2.0 4.0 0.00 1.09 0.00 92 1016.8
20221001015008 52 340 2.0 3.0 0.00 1.09 0.00 92 1016.7
20221001014509 52 327 3.0 3.0 0.00 1.09 0.00 92 1016.8
20221001014008 52 343 2.0 3.0 0.00 1.09 0.00 92 1016.7
20221001013509 52 1 2.0 2.0 0.00 1.09 0.00 92 1016.8
20221001012009 52 1 3.0 4.0 0.00 1.09 0.00 92 1016.9
20221001011508 52 1 2.0 4.0 0.00 1.09 0.00 92 1016.6
20221001011008 52 1 2.0 2.0 0.00 1.09 0.00 92 1016.6
20221001010509 52 1 1.0 2.0 0.00 1.09 0.00 92 1016.7
20221001010008 52 1 2.0 3.0 0.00 1.09 0.00 92 1016.7
20221001005509 52 1 2.0 3.0 0.00 1.09 0.00 92 1016.8
20221001005008 52 1 2.0 3.0 0.00 1.09 0.00 92 1016.7
20221001004008 52 357 4.0 4.0 0.00 1.09 0.00 92 1016.9
20221001003508 52 350 3.0 4.0 0.00 1.09 0.00 92 1016.9
20221001003008 52 350 3.0 3.0 0.00 1.09 0.00 92 1016.7
20221001002509 52 337 3.0 4.0 0.00 1.09 0.00 92 1016.7
20221001002008 52 332 3.0 4.0 0.00 1.09 0.00 92 1016.8
20221001001509 52 344 3.0 4.0 0.00 1.09 0.00 92 1016.8
20221001001008 52 353 3.0 4.0 0.00 1.09 0.00 92 1016.7
20221001000509 52 1 3.0 3.0 0.00 1.09 0.00 92 1016.7
20221001000008 52 1 3.0 4.0 0.00 1.09 0.00 92 1016.6
20220930235508 52 359 3.0 4.0 0.00 1.09 0.00 92 1016.5
20220930235008 52 337 3.0 4.0 0.00 1.09 0.00 92 1016.6
20220930234508 52 323 2.0 3.0 0.00 1.09 0.00 92 1016.4
20220930234008 52 328 2.0 3.0 0.00 1.09 0.00 92 1016.3
20220930233508 52 337 2.0 3.0 0.00 1.09 0.00 92 1016.3
20220930233008 52 1 2.0 3.0 0.00 1.09 0.00 93 1016.1
20220930232508 52 1 3.0 4.0 0.00 1.09 0.00 93 1016.1
20220930231510 52 359 3.0 4.0 0.00 1.09 0.00 93 1016.2
20220930230509 52 1 4.0 4.0 0.00 1.09 0.00 92 1016.3
20220930230008 52 347 4.0 4.0 0.00 1.09 0.00 92 1016.1
20220930225508 52 328 3.0 4.0 0.00 1.09 0.00 92 1016.2
20220930225009 52 322 3.0 4.0 0.00 1.09 0.00 92 1016.2
20220930224008 52 324 3.0 4.0 0.00 1.09 0.00 92 1016.2
20220930223508 52 338 3.0 4.0 0.00 1.09 0.00 92 1016.1
20220930222508 52 350 4.0 4.0 0.00 1.09 0.00 92 1015.9
20220930222008 52 345 4.0 5.0 0.00 1.09 0.00 92 1015.8
20220930221508 52 350 4.0 5.0 0.00 1.09 0.00 92 1015.8
20220930221009 52 355 4.0 5.0 0.00 1.09 0.00 92 1015.6
20220930220509 52 1 3.0 3.0 0.00 1.09 0.00 92 1015.8